[[{"header":{"parameterUnit":"m.s-1","parameterCategory":1,"la1":30.2991,"la2":30.254,"lo1":-89.0895,"lo2":-89.0444,"dy":0.0017,"dx":0.0017,"nx":28,"ny":28,"refTime":"2024-12-17T09:00:00:Z","depth":0,"parameterNumber":2,"parameterNumberName":"U-component_of_WINDS"},"data":[0,0,0,0,0,0,0,0,0,0,0,0,0,0,0,0,0,0,0,0,0,0,0,0,0,0,0,0,0,0,0,0,0,0,0,0,0,0,0,0,0,0,0,0,0,0,0,0,0,0,0,0,0,0,0,0,0,0,-1.8533,-1.8532,0,-1.8493,-1.8493,-1.8492,-1.8421,-1.8419,-1.8418,-1.8417,-1.8378,-1.8378,-1.8378,0,0,0,0,0,0,0,0,0,0,0,0,0,-1.8547,-1.8547,-1.8533,-1.8532,-1.8532,-1.8493,-1.8493,-1.8492,-1.8421,-1.8419,-1.8418,-1.8416,-1.8378,-1.8378,-1.8378,0,0,0,0,0,0,0,0,0,0,0,0,0,-1.8528,-1.8547,-1.8533,-1.8491,-1.8487,-1.8493,-1.8493,-1.8492,-1.8421,-1.8419,-1.8417,-1.8415,-1.8377,-1.8378,-1.8378,-1.8422,0,0,-1.8379,-1.8379,0,0,0,0,0,0,0,0,-1.8529,-1.8527,-1.8498,-1.8494,-1.849,-1.846,-1.8484,-1.8469,-1.8422,-1.8446,-1.8417,-1.8414,-1.8407,-1.8405,-1.8402,-1.842,-1.8418,-1.8379,-1.838,-1.838,-1.838,0,0,0,0,0,0,0,-1.853,-1.8529,-1.8517,-1.8498,-1.8493,-1.8475,-1.847,-1.848,-1.8439,-1.8444,-1.8439,-1.8435,-1.8404,-1.8402,-1.84,-1.8418,-1.8379,-1.838,-1.838,-1.838,-1.847,-1.8472,0,0,0,0,0,0,-1.8538,-1.853,-1.8518,-1.8516,-1.8505,-1.8477,-1.8471,-1.8471,-1.8438,-1.8431,-1.8437,-1.8432,-1.8402,-1.84,-1.8399,-1.8448,-1.838,-1.838,-1.838,-1.8468,-1.8471,-1.8473,0,0,0,0,0,0,-1.8538,-1.8537,-1.852,-1.8522,-1.8518,-1.8479,-1.848,-1.8472,-1.8469,-1.8433,-1.8425,-1.8442,-1.84,-1.8398,-1.8417,-1.8445,-1.838,-1.8381,-1.8466,-1.8469,-1.8472,-1.8547,0,0,0,0,0,0,-1.8539,-1.8538,-1.8554,-1.8522,-1.8518,-1.8538,-1.8481,-1.8472,-1.847,-1.8463,-1.8436,-1.8429,-1.8398,-1.8416,-1.8417,-1.8445,-1.8381,-1.8463,-1.8467,-1.8471,-1.8541,-1.8552,-1.8561,0,0,0,0,0,-1.854,-1.8576,-1.8555,-1.8554,-1.8537,-1.854,-1.8538,-1.8501,-1.8472,-1.8488,-1.8465,-1.843,-1.8442,-1.8419,-1.8419,-1.8447,-1.8461,-1.8466,-1.8471,-1.8537,-1.855,-1.8561,0,0,0,0,0,0,-1.8613,-1.8572,-1.8547,-1.8575,-1.8562,-1.8528,-1.8547,-1.8516,-1.8511,-1.8505,-1.846,-1.8455,-1.8479,-1.8465,-1.844,-1.8488,-1.8446,-1.8451,-1.8496,-1.8508,-1.8518,-1.8521,-1.8381,0,0,0,0,0,-1.8632,-1.8637,-1.8601,-1.8629,-1.8624,-1.8587,-1.8587,-1.856,-1.8544,-1.8538,-1.8516,-1.8503,-1.8504,-1.8505,-1.8504,-1.8539,-1.8532,-1.8559,-1.8568,-1.8577,-1.8582,-1.86,-1.8611,-1.8489,-1.8489,-1.8489,0,0,-1.8672,-1.865,-1.8656,-1.8643,-1.863,-1.8637,-1.8582,-1.8592,-1.8597,-1.854,-1.8556,-1.854,-1.8522,-1.8549,-1.856,-1.8538,-1.8614,-1.8583,-1.859,-1.859,-1.8606,-1.8617,-1.8628,-1.8493,-1.8492,-1.8491,0,0,-1.8748,-1.8732,-1.8753,-1.8741,-1.8721,-1.8696,-1.8702,-1.8673,-1.866,-1.8675,-1.8632,-1.8638,-1.864,-1.8629,-1.8624,-1.8697,-1.8665,-1.8698,-1.8749,-1.8767,-1.8777,-1.8785,-1.8812,-1.8822,-1.8703,-1.8703,-1.8703,0,-1.88,-1.8808,-1.8768,-1.8781,-1.8777,-1.8725,-1.8747,-1.8737,-1.8718,-1.8717,-1.8692,-1.8694,-1.8679,-1.8703,-1.8721,-1.8718,-1.8723,-1.8701,-1.8779,-1.8787,-1.8794,-1.8818,-1.8828,-1.8707,-1.8707,-1.8706,-1.8706,0,-1.8873,-1.888,-1.89,-1.8883,-1.8881,-1.8898,-1.8861,-1.8864,-1.8838,-1.8816,-1.8833,-1.8812,-1.8806,-1.881,-1.8784,-1.883,-1.8817,-1.8787,-1.8744,-1.881,-1.8833,-1.8842,-1.8713,-1.8712,-1.8711,-1.871,0,0,-1.8994,-1.8955,-1.8963,-1.8954,-1.8929,-1.8934,-1.8949,-1.8942,-1.8946,-1.8935,-1.8947,-1.895,-1.8922,-1.8916,-1.8889,-1.8904,-1.8964,-1.8872,-1.887,-1.889,-1.9014,-1.9038,-1.9049,-1.8942,-1.8944,-1.8945,-1.9016,0,-1.9065,-1.9088,-1.9053,-1.9084,-1.909,-1.9042,-1.9055,-1.9041,-1.9021,-1.9024,-1.9002,-1.9005,-1.8967,-1.8963,-1.8976,-1.8954,-1.8988,-1.8948,-1.8954,-1.8954,-1.896,-1.9061,-1.9086,-1.9153,-1.9024,-1.9026,-1.9027,0,-1.915,-1.9143,-1.9175,-1.9148,-1.9149,-1.9162,-1.9153,-1.9156,-1.914,-1.9124,-1.9119,-1.9086,-1.91,-1.9058,-1.9076,-1.905,-1.905,-1.904,-1.9041,-1.904,-1.8995,-1.9063,-1.9174,-1.9184,-1.904,-1.9039,-1.9038,0,-1.9236,-1.9234,-1.9253,-1.9247,-1.9216,-1.9226,-1.9214,-1.9195,-1.9194,-1.9187,-1.9186,-1.9181,-1.9178,-1.9175,-1.9142,-1.9115,-1.9165,-1.912,-1.9153,-1.9154,-1.9166,-1.9165,-1.9278,-1.9166,-1.9165,-1.9165,-1.9165,0,-1.9318,-1.934,-1.9291,-1.9303,-1.9326,-1.9285,-1.9309,-1.9292,-1.9276,-1.9284,-1.9242,-1.925,-1.9207,-1.9211,-1.9185,-1.9205,-1.9204,-1.9192,-1.9185,-1.9196,-1.9197,-1.9195,-1.919,-1.9168,-1.9167,-1.9167,-1.9166,0,-1.9417,-1.9385,-1.9403,-1.9372,-1.9365,-1.9383,-1.9357,-1.9367,-1.9344,-1.9355,-1.9355,-1.932,-1.9323,-1.929,-1.9286,-1.9269,-1.93,-1.9285,-1.9306,-1.9301,-1.9335,-1.9333,-1.9451,-1.9464,-1.9343,-1.9344,-1.9345,0,-1.9472,-1.9488,-1.9459,-1.9461,-1.945,-1.9454,-1.9453,-1.9414,-1.9414,-1.9397,-1.9409,-1.9408,-1.9405,-1.9412,-1.9386,-1.9383,-1.9368,-1.9409,-1.9367,-1.9378,-1.9369,-1.9368,-1.937,-1.9419,-1.942,-1.9421,-1.9422,0,-1.9574,-1.9557,-1.9556,-1.955,-1.9549,-1.9542,-1.9533,-1.9537,-1.9495,-1.9498,-1.95,-1.9498,-1.9494,-1.9494,-1.9486,-1.9473,-1.9441,-1.9436,-1.9443,-1.9455,-1.9466,-1.9461,-1.933,-1.9433,-1.9432,-1.9431,-1.9431,-1.943,-1.9652,-1.9664,-1.9645,-1.9646,-1.9635,-1.9627,-1.9635,-1.9614,-1.9614,-1.9608,-1.9585,-1.9591,-1.9575,-1.9561,-1.9552,-1.9557,-1.9536,-1.9547,-1.955,-1.9553,-1.9559,-1.9465,-1.9555,-1.9555,-1.9554,-1.9554,-1.9554,0,-1.9751,-1.9737,-1.9738,-1.9726,-1.9727,-1.9696,-1.9685,-1.9687,-1.9693,-1.9681,-1.9679,-1.9681,-1.9681,-1.9656,-1.9652,-1.9661,-1.9646,-1.9662,-1.9661,-1.9659,-1.9578,-1.9572,-1.9674,-1.9674,-1.9674,-1.9674,-1.9674,-1.9674,-1.9803,-1.9821,-1.9803,-1.9815,-1.9801,-1.9806,-1.9802,-1.9795,-1.9785,-1.979,-1.9789,-1.9773,-1.9755,-1.975,-1.9749,-1.9742,-1.9743,-1.9763,-1.9751,-1.9676,-1.9664,-1.9653,-1.9647,-1.9763,-1.9764,-1.9831,-1.9832,-1.9832]},{"header":{"parameterUnit":"m.s-1","parameterCategory":1,"la1":30.2991,"la2":30.254,"lo1":-89.0895,"lo2":-89.0444,"dy":0.0017,"dx":0.0017,"nx":28,"ny":28,"refTime":"2024-12-17T09:00:00:Z","depth":0,"parameterNumber":3,"parameterNumberName":"V-component_of_WINDS"},"data":[0,0,0,0,0,0,0,0,0,0,0,0,0,0,0,0,0,0,0,0,0,0,0,0,0,0,0,0,0,0,0,0,0,0,0,0,0,0,0,0,0,0,0,0,0,0,0,0,0,0,0,0,0,0,0,0,0,0,-1.0203,-1.0203,0,-1.0236,-1.0236,-1.0236,-1.0216,-1.0215,-1.0214,-1.0213,-1.0248,-1.0249,-1.0251,0,0,0,0,0,0,0,0,0,0,0,0,0,-1.0122,-1.0124,-1.0203,-1.0203,-1.0204,-1.0235,-1.0236,-1.0236,-1.0216,-1.0215,-1.0214,-1.0213,-1.0247,-1.0249,-1.0251,0,0,0,0,0,0,0,0,0,0,0,0,0,-1.0156,-1.0124,-1.0203,-1.0197,-1.0197,-1.0235,-1.0236,-1.0236,-1.0217,-1.0215,-1.0214,-1.0212,-1.0246,-1.0249,-1.0251,-1.0297,0,0,-1.026,-1.0261,0,0,0,0,0,0,0,0,-1.0154,-1.0159,-1.0198,-1.0198,-1.0198,-1.022,-1.022,-1.0257,-1.0217,-1.0209,-1.0213,-1.0212,-1.024,-1.0243,-1.0252,-1.0298,-1.03,-1.026,-1.0262,-1.0263,-1.0263,0,0,0,0,0,0,0,-1.0152,-1.0158,-1.0216,-1.0198,-1.0198,-1.0193,-1.0196,-1.0227,-1.0232,-1.021,-1.0209,-1.0213,-1.0239,-1.025,-1.0253,-1.03,-1.026,-1.0262,-1.0264,-1.0265,-1.0384,-1.0385,0,0,0,0,0,0,-1.015,-1.0156,-1.0215,-1.0217,-1.0172,-1.0196,-1.0199,-1.0215,-1.0232,-1.0233,-1.0214,-1.0212,-1.0246,-1.025,-1.0254,-1.0308,-1.0263,-1.0265,-1.0267,-1.0382,-1.0384,-1.0386,0,0,0,0,0,0,-1.0148,-1.0156,-1.0213,-1.0186,-1.0193,-1.0199,-1.0216,-1.0216,-1.0226,-1.0235,-1.0236,-1.0223,-1.0245,-1.025,-1.0286,-1.0309,-1.0266,-1.0269,-1.0381,-1.0383,-1.0385,-1.0416,0,0,0,0,0,0,-1.0146,-1.0155,-1.0173,-1.0186,-1.0194,-1.0245,-1.0217,-1.0218,-1.0231,-1.0228,-1.0244,-1.0245,-1.0244,-1.0282,-1.0289,-1.0311,-1.0271,-1.0379,-1.0382,-1.0384,-1.0413,-1.0419,-1.0424,0,0,0,0,0,-1.0143,-1.018,-1.0174,-1.0181,-1.0217,-1.0247,-1.0251,-1.0249,-1.0233,-1.025,-1.0255,-1.0245,-1.0305,-1.0286,-1.0293,-1.0317,-1.0377,-1.0381,-1.0384,-1.041,-1.0418,-1.0424,0,0,0,0,0,0,-1.0169,-1.0182,-1.0175,-1.0217,-1.0231,-1.0243,-1.0265,-1.0257,-1.0276,-1.0273,-1.0269,-1.0273,-1.031,-1.0317,-1.0296,-1.0361,-1.0338,-1.0343,-1.0356,-1.0363,-1.0368,-1.0366,-1.0273,0,0,0,0,0,-1.018,-1.0203,-1.0213,-1.025,-1.0257,-1.026,-1.0273,-1.027,-1.0284,-1.029,-1.0298,-1.0312,-1.0334,-1.0348,-1.0369,-1.0413,-1.0416,-1.0433,-1.0439,-1.0443,-1.0448,-1.0471,-1.0479,-1.0397,-1.0397,-1.0397,0,0,-1.0202,-1.0212,-1.0227,-1.0255,-1.0265,-1.0289,-1.0265,-1.0292,-1.031,-1.0294,-1.0328,-1.0334,-1.035,-1.039,-1.0408,-1.0397,-1.0471,-1.0448,-1.0451,-1.0454,-1.0476,-1.0483,-1.049,-1.04,-1.0399,-1.0399,0,0,-1.0256,-1.0265,-1.0297,-1.0307,-1.0322,-1.0324,-1.0331,-1.0345,-1.0348,-1.0382,-1.0371,-1.0391,-1.0429,-1.0441,-1.0452,-1.0507,-1.0498,-1.0514,-1.0544,-1.0566,-1.0573,-1.0578,-1.0598,-1.0606,-1.0518,-1.0518,-1.0518,0,-1.0282,-1.0318,-1.0314,-1.0341,-1.0354,-1.0339,-1.0371,-1.0381,-1.0403,-1.0411,-1.0398,-1.0445,-1.0454,-1.0497,-1.051,-1.0519,-1.0527,-1.0513,-1.0572,-1.0578,-1.0583,-1.0602,-1.0609,-1.052,-1.052,-1.052,-1.052,0,-1.0349,-1.0374,-1.0397,-1.0418,-1.0433,-1.0462,-1.0462,-1.0477,-1.0472,-1.0475,-1.051,-1.052,-1.0542,-1.0552,-1.0548,-1.0593,-1.0586,-1.0572,-1.055,-1.0593,-1.0611,-1.0618,-1.0523,-1.0522,-1.0522,-1.0521,0,0,-1.0421,-1.0438,-1.0447,-1.0456,-1.0471,-1.049,-1.0518,-1.054,-1.0553,-1.0568,-1.0591,-1.0623,-1.061,-1.0622,-1.0619,-1.0639,-1.0682,-1.0623,-1.0623,-1.0634,-1.0732,-1.0743,-1.0752,-1.0675,-1.0676,-1.0677,-1.0731,0,-1.0476,-1.0525,-1.0521,-1.0568,-1.0591,-1.0577,-1.0601,-1.0613,-1.0616,-1.0635,-1.0638,-1.0661,-1.0642,-1.0649,-1.0668,-1.0673,-1.0702,-1.0668,-1.0697,-1.0698,-1.0695,-1.0761,-1.0773,-1.0823,-1.0738,-1.0739,-1.074,0,-1.0546,-1.0563,-1.0612,-1.0623,-1.0632,-1.0654,-1.0673,-1.0692,-1.0704,-1.0705,-1.0718,-1.0711,-1.0739,-1.0714,-1.0752,-1.073,-1.0741,-1.0744,-1.0746,-1.075,-1.0723,-1.0767,-1.0839,-1.0847,-1.0751,-1.075,-1.0749,0,-1.0595,-1.0629,-1.0663,-1.0671,-1.0684,-1.07,-1.0706,-1.0717,-1.073,-1.0746,-1.0754,-1.0774,-1.0784,-1.0799,-1.0797,-1.078,-1.0836,-1.0811,-1.0838,-1.0838,-1.0851,-1.0851,-1.0927,-1.0857,-1.0857,-1.0857,-1.0857,0,-1.0657,-1.0687,-1.0685,-1.0705,-1.0739,-1.0734,-1.0767,-1.0771,-1.0781,-1.0802,-1.079,-1.081,-1.0806,-1.0826,-1.0824,-1.0856,-1.0861,-1.0862,-1.0862,-1.0864,-1.0864,-1.0872,-1.0869,-1.0859,-1.0858,-1.0858,-1.0858,0,-1.0717,-1.0717,-1.0752,-1.0761,-1.0764,-1.0789,-1.0796,-1.0816,-1.0817,-1.0844,-1.0849,-1.0851,-1.0874,-1.0873,-1.0898,-1.0897,-1.0937,-1.0932,-1.0933,-1.0932,-1.0958,-1.0956,-1.1043,-1.1055,-1.0976,-1.0977,-1.0978,0,-1.0757,-1.078,-1.0791,-1.0805,-1.0812,-1.0833,-1.0846,-1.0841,-1.0855,-1.087,-1.0887,-1.0909,-1.0926,-1.0962,-1.0966,-1.0985,-1.0981,-1.101,-1.0984,-1.0985,-1.0982,-1.0981,-1.0983,-1.1015,-1.1016,-1.1017,-1.1018,0,-1.0828,-1.0826,-1.0845,-1.0864,-1.0879,-1.0893,-1.0906,-1.0918,-1.0914,-1.093,-1.0952,-1.0965,-1.0991,-1.1012,-1.103,-1.1036,-1.1027,-1.1025,-1.1033,-1.1036,-1.1036,-1.1037,-1.0948,-1.1024,-1.1023,-1.1023,-1.1022,-1.1022,-1.088,-1.09,-1.091,-1.0931,-1.094,-1.0953,-1.0971,-1.0974,-1.0993,-1.1013,-1.1009,-1.1034,-1.1045,-1.1068,-1.1076,-1.1095,-1.1085,-1.1095,-1.1098,-1.1101,-1.1104,-1.1031,-1.1099,-1.1098,-1.1098,-1.1098,-1.1098,0,-1.0951,-1.0957,-1.0976,-1.0994,-1.1011,-1.0999,-1.1012,-1.1027,-1.1049,-1.106,-1.1077,-1.1102,-1.1122,-1.1127,-1.1146,-1.1161,-1.1157,-1.1166,-1.1166,-1.1167,-1.1112,-1.1104,-1.1169,-1.1169,-1.1169,-1.1169,-1.1169,-1.1169,-1.099,-1.1022,-1.1022,-1.1058,-1.1064,-1.1088,-1.1097,-1.1108,-1.1117,-1.1146,-1.1162,-1.1165,-1.1173,-1.1192,-1.121,-1.1211,-1.1219,-1.123,-1.1229,-1.1178,-1.1171,-1.1164,-1.1157,-1.1232,-1.1232,-1.1282,-1.1283,-1.1283]}]]